Flag for Israel Past Weather in Modi'in-Maccabim-Re'ut, Israel — Yesterday and Last 2 Weeks

Now
86 °F

Passing clouds.


Feels Like: 89 °F
Forecast: 75 / 90 °F
Wind: 5 mph from West

Location: Ben Gurion International Airport

Current Time: Jul 29, 2016 at 10:58:02 AM

Latest Report: Jul 29, 2016 at 10:20 AM


Visibility: N/A

Pressure: 29.71 "Hg

Humidity: 55%

Dew Point: 68 °F

Location of Modi'in-Maccabim-Re'utLocation

Past Weather in Modi'in-Maccabim-Re'ut — Graph

°F

Modi'in-Maccabim-Re'ut Temperature Yesterday

Maximum temperature yesterday: 88 °F (at 10:50 AM)
Minimum temperature yesterday: 77 °F (at 4:20 AM)
Average temperature yesterday: 83 °F

High & Low Weather Summary for the Past Weeks

 TemperatureHumidityPressure
High91 °F (Jul 15, 1:50 PM)84% (Jul 25, 5:20 AM)29.89 "Hg (Jul 25, 5:20 AM)
Low73 °F (Jul 22, 5:20 AM)20% (Jul 26, 8:50 PM)29.65 "Hg (Jul 19, 11:20 AM)
Average82 °F64%29.75 "Hg
* Reported Jul 14 9:20 AM — Jul 29 9:50 AM, Modi'in-Maccabim-Re'ut, Weather by CustomWeather, © 2016

Note: Actual official high and low records may vary slightly from our data, if they occured in-between our weather recording intervals... More about our weather records

Advertising

Modi'in-Maccabim-Re'ut Weather History for the Previous 24 Hours

Scroll right to see more
 ConditionsComfort  
Time TempWeatherWind HumidityBarometerVisibility
9:50 AM
Fri, Jul 29
84 °FScattered clouds.5 mph62%29.71 "HgN/A
9:20 AM82 °FScattered clouds.5 mph66%29.71 "HgN/A
8:50 AM82 °FScattered clouds.5 mph66%29.74 "HgN/A
8:20 AM81 °FScattered clouds.6 mph66%29.71 "HgN/A
7:50 AM79 °FScattered clouds.8 mph70%29.74 "HgN/A
7:20 AM77 °FScattered clouds.6 mph69%29.71 "HgN/A
6:50 AM81 °FPassing clouds.3 mph66%29.71 "HgN/A
6:20 AM75 °FPassing clouds.3 mph74%29.71 "HgN/A
5:50 AM75 °FPassing clouds.5 mph78%29.71 "HgN/A
5:20 AM75 °FPassing clouds.3 mph78%29.71 "HgN/A
4:50 AM75 °FPassing clouds.6 mph78%29.71 "HgN/A
4:20 AM75 °FPassing clouds.5 mph78%29.71 "HgN/A
3:50 AM77 °FPassing clouds.3 mph74%29.71 "HgN/A
3:20 AM75 °FPassing clouds.6 mph78%29.71 "HgN/A
2:50 AM77 °FPassing clouds.7 mph74%29.71 "HgN/A
2:20 AM77 °FClear.6 mph79%29.71 "Hg10 mi
1:50 AM79 °FClear.3 mph74%29.71 "Hg10 mi
1:20 AM77 °FPassing clouds.2 mph79%29.71 "HgN/A
12:50 AM79 °FPassing clouds.2 mph74%29.71 "HgN/A
12:20 AM79 °FPassing clouds.2 mph79%29.71 "HgN/A
11:50 PM
Thu, Jul 28
79 °FPassing clouds.1 mph79%29.71 "HgN/A
11:20 PM81 °FPassing clouds.3 mph74%29.71 "HgN/A
10:50 PM81 °FPassing clouds.2 mph74%29.71 "HgN/A
10:20 PM81 °FPassing clouds.2 mph74%29.74 "HgN/A
9:50 PM81 °FPassing clouds.2 mph74%29.71 "HgN/A
9:20 PM81 °FPassing clouds.3 mph74%29.71 "HgN/A
8:50 PM82 °FPassing clouds.3 mph70%29.71 "HgN/A
8:20 PM82 °FPassing clouds.6 mph70%29.71 "HgN/A
7:50 PM82 °FPassing clouds.7 mph70%29.71 "HgN/A
7:20 PM84 °FPassing clouds.8 mph66%29.71 "HgN/A
6:50 PM84 °FPassing clouds.10 mph66%29.71 "HgN/A
6:20 PM84 °FPassing clouds.10 mph66%29.71 "HgN/A
5:50 PM86 °FPassing clouds.10 mph59%29.68 "HgN/A
5:20 PM86 °FPassing clouds.12 mph59%29.71 "HgN/A
4:50 PM88 °FPassing clouds.13 mph59%29.71 "HgN/A
4:20 PM86 °FPassing clouds.12 mph59%29.71 "HgN/A
3:50 PM88 °FPassing clouds.13 mph55%29.71 "HgN/A
3:20 PM88 °FPassing clouds.13 mph55%29.71 "HgN/A
2:50 PM88 °FSunny.13 mph55%29.71 "Hg10 mi
2:20 PM88 °FPassing clouds.10 mph55%29.71 "HgN/A
1:50 PM88 °FPassing clouds.10 mph52%29.71 "HgN/A
1:20 PM88 °FSunny.12 mph55%29.74 "Hg10 mi
12:50 PM88 °FSunny.12 mph55%29.74 "Hg10 mi
12:20 PM88 °FSunny.10 mph55%29.74 "Hg10 mi
11:50 AM88 °FPassing clouds.8 mph55%29.74 "HgN/A
11:20 AM88 °FPassing clouds.10 mph52%29.74 "HgN/A
10:50 AM88 °FPassing clouds.7 mph55%29.74 "HgN/A
10:20 AM86 °FPassing clouds.7 mph59%29.77 "HgN/A
Weather by CustomWeather, © 2016

See weather overviewHow to use our weather pages